Lapse_Rate
6.0 6.0 6.3 6.2 6.6 6.9 6.6 6.6 6.7 6.9 6.9 6.8 7.0 6.9 7.3 7.8 8.0 7.9 7.7 7.4 5.7 6.9 6.6 6.5 6.2 6.1 6.5 7.0 6.7 6.4 6.4 6.2 5.9 6.1 6.1 6.2 5.9 5.4 5.6 5.9 5.8 5.9 5.5
6.1 6.2 6.4 6.8 6.9 6.9 6.6 6.4 6.5 6.7 6.0 6.6 6.9 6.9 7.1 7.2 7.1 7.2 7.4 7.2 7.4 7.3 7.2 6.4 5.8 5.5 6.2 6.8 6.5 6.3 6.4 6.2 6.1 5.7 5.9 6.2 6.1 6.0 5.8 5.7 5.5 5.4 5.3
6.0 6.2 6.1 6.3 6.4 6.7 6.8 6.5 6.3 6.3 5.9 5.9 6.1 6.1 6.7 6.8 7.1 7.2 6.9 7.3 7.5 6.6 5.7 5.4 5.4 5.9 6.3 6.6 6.4 6.4 6.3 6.2 6.2 6.0 6.0 6.1 5.9 5.9 5.9 5.6 5.3 5.3 5.4
5.7 5.9 6.0 6.1 6.1 6.1 6.0 6.2 6.7 6.5 6.5 6.2 6.3 6.2 6.0 5.8 6.8 7.3 7.0 6.8 6.6 6.5 5.8 6.0 5.8 6.1 6.4 6.4 6.5 6.4 6.2 6.0 5.8 5.6 6.1 5.9 6.0 6.1 5.9 5.6 5.6 5.5 5.5
5.5 5.6 5.6 5.9 5.9 5.7 5.8 5.9 5.9 6.0 6.1 6.5 6.4 6.5 6.0 6.0 6.5 6.7 6.6 6.5 6.5 6.3 6.1 6.3 6.1 6.3 6.4 6.7 6.5 6.4 6.0 6.1 5.9 5.9 5.9 5.9 6.1 5.7 5.5 5.6 5.7 5.8 5.7
5.3 5.4 5.5 5.3 5.8 5.5 5.5 5.5 5.4 5.7 5.6 5.3 5.9 5.7 6.1 6.2 6.7 6.7 6.5 6.3 6.2 6.3 5.8 5.9 6.2 6.5 6.8 6.5 6.4 6.2 6.0 6.1 6.1 5.8 5.8 5.9 6.1 5.6 5.7 5.2 5.6 5.8 5.5
5.0 5.2 5.3 5.2 5.5 5.5 5.7 5.5 5.5 5.5 5.6 5.6 5.6 5.7 5.8 5.8 6.0 6.2 6.4 6.1 5.9 5.9 6.1 6.0 6.1 6.6 6.8 6.5 6.3 6.3 6.3 5.9 5.7 5.8 6.0 5.8 5.7 5.5 5.4 5.4 5.8 5.6 5.7
4.9 5.1 5.2 5.3 5.0 5.3 5.5 5.4 5.3 5.2 5.3 5.5 5.5 5.7 5.2 5.5 5.9 6.1 6.1 6.0 5.8 5.9 5.8 6.2 6.4 6.6 7.1 6.6 6.3 6.2 5.9 5.9 5.8 5.8 5.8 5.3 5.4 5.1 5.2 5.5 5.6 5.4 5.3
5.3 5.3 5.1 4.9 4.8 4.8 5.0 5.0 5.1 4.8 4.9 5.3 5.2 5.5 5.5 5.7 6.1 6.2 6.2 6.0 6.0 6.1 6.0 6.0 6.4 6.1 6.7 6.8 6.4 6.3 6.0 6.0 5.9 5.8 5.4 5.5 5.3 5.2 5.2 5.3 5.3 5.5 5.3
5.2 5.4 4.9 4.7 4.7 4.7 4.7 4.7 4.6 4.6 4.6 4.6 4.9 4.9 5.3 5.4 5.6 6.1 6.1 6.3 5.9 5.8 5.7 5.9 6.2 6.3 6.4 6.3 5.7 6.2 5.9 5.9 5.4 5.5 5.5 5.1 5.3 5.1 5.1 5.2 5.2 5.1 5.1
6.0 5.6 5.3 5.0 5.0 4.9 4.5 4.4 4.4 4.5 4.3 4.4 4.3 4.2 4.5 4.6 4.8 5.2 5.6 5.5 5.9 5.9 5.6 5.9 6.0 5.8 6.3 6.1 6.1 5.8 5.8 5.8 5.6 5.8 5.6 5.4 5.5 5.3 5.1 5.0 5.0 5.0 5.1
6.0 5.7 5.7 5.6 5.5 5.2 5.0 4.9 4.5 4.4 4.4 4.6 4.6 4.4 4.2 4.1 4.2 4.5 4.7 4.9 5.0 5.4 5.3 5.4 5.2 5.7 5.9 6.1 6.1 6.2 6.0 5.8 5.9 5.6 5.8 5.8 5.5 5.5 5.2 5.3 5.5 5.2 5.1
5.5 5.4 5.4 5.3 5.3 5.3 5.3 5.6 5.5 5.2 4.9 4.8 4.7 4.6 4.7 4.6 4.3 4.1 4.2 4.5 4.6 4.8 5.0 5.4 5.5 5.8 6.2 6.3 6.3 6.1 6.0 6.2 6.1 6.0 5.9 6.0 5.9 5.6 5.7 5.6 5.7 5.7 5.6
5.6 5.4 5.3 5.3 5.2 5.2 5.2 5.1 5.1 5.2 5.4 5.4 5.0 4.7 4.7 4.7 4.6 4.5 4.4 4.3 4.3 4.3 4.3 4.3 4.7 4.7 5.6 5.4 5.5 5.8 5.7 5.6 5.9 5.9 5.7 5.8 6.0 5.9 6.0 5.8 5.7 5.5 5.4
5.8 5.6 5.6 5.5 5.4 5.3 5.3 5.3 5.3 5.2 5.1 5.0 5.1 5.3 5.1 4.8 4.6 4.6 4.5 4.4 4.4 4.3 4.2 4.2 4.4 4.2 4.5 4.4 4.8 4.9 4.7 4.8 5.1 5.2 5.5 5.5 5.3 5.6 5.7 5.7 5.7 5.7 5.6
5.6 5.5 5.5 5.4 5.3 5.3 5.3 5.1 4.9 5.0 4.9 4.7 4.6 4.6 4.7 4.9 4.8 4.9 4.9 4.6 4.4 4.5 4.5 4.3 4.2 4.2 4.3 4.0 4.0 4.1 3.9 4.1 4.2 4.0 4.4 4.5 4.5 4.4 4.2 4.5 4.5 4.6 4.7
5.6 5.5 5.6 5.5 5.5 5.5 5.5 5.5 5.5 5.5 5.2 5.1 5.1 4.9 4.6 4.6 4.7 4.7 4.5 4.5 4.8 4.9 4.8 4.4 4.3 4.3 4.3 4.2 4.2 4.1 3.9 4.1 3.6 3.8 3.8 3.9 3.8 3.8 3.9 3.9 3.9 3.8 3.8
5.7 5.8 5.7 5.7 5.7 5.6 5.5 5.5 5.5 5.4 5.3 5.3 5.1 5.1 5.1 5.1 4.9 4.9 4.9 5.0 4.7 4.5 4.4 4.3 4.5 4.5 4.3 4.3 4.2 4.2 4.2 4.1 3.9 3.8 3.8 3.7 3.7 3.6 3.7 3.9 3.9 3.8 3.8
5.6 5.5 5.5 5.4 5.4 5.4 5.4 5.4 5.4 5.3 5.3 5.1 4.8 4.7 4.8 4.8 4.9 4.8 4.7 4.6 4.8 4.8 4.7 4.6 4.3 4.0 3.9 4.0 4.0 4.1 4.0 3.9 3.9 3.9 3.7 3.6 3.6 3.5 3.4 3.5 3.4 3.4 3.5
5.2 5.2 5.1 5.0 5.0 4.9 4.6 4.5 4.4 4.4 4.3 4.5 4.5 4.4 4.4 4.3 4.2 4.3 4.1 4.1 4.2 4.1 4.3 4.3 4.2 4.1 4.2 4.1 3.8 3.6 3.5 3.5 3.4 3.3 3.3 3.4 3.4 3.3 3.2 3.1 3.1 3.1 2.9
5.0 4.9 4.9 4.7 4.4 4.2 4.0 3.9 3.7 3.5 3.4 3.3 3.4 3.5 3.4 3.4 3.4 3.6 3.6 3.7 3.7 3.7 3.5 3.7 3.9 3.9 3.9 3.9 3.8 3.8 3.8 3.7 3.6 3.4 3.1 2.9 2.8 2.8 2.6 2.4 2.3 2.3 2.2
4.9 4.7 4.6 4.4 4.1 3.7 3.4 3.1 2.9 2.7 2.6 2.6 2.7 2.7 3.0 3.1 2.9 2.9 3.0 3.1 3.3 3.4 3.4 3.3 3.3 3.5 3.6 3.6 3.7 3.7 3.7 3.6 3.5 3.4 3.4 3.3 3.2 3.0 2.9 2.8 2.7 2.8 3.0
4.4 4.2 4.0 3.7 3.4 3.2 2.9 2.7 2.8 2.8 2.9 2.8 2.8 2.8 2.9 3.0 3.0 3.0 2.9 2.9 3.0 3.2 3.2 3.3 3.4 3.4 3.4 3.4 3.6 3.7 3.6 3.6 3.6 3.6 3.4 3.4 3.4 3.3 3.4 3.4 3.5 3.5 3.5
3.9 3.6 3.3 3.3 3.1 3.0 2.9 3.0 3.2 3.4 3.8 4.1 4.2 4.3 4.3 4.3 4.4 4.4 4.4 3.9 3.4 3.4 3.0 3.0 3.0 3.2 3.3 3.5 3.4 3.3 3.5 3.4 3.4 3.5 3.5 3.5 3.5 3.6 3.5 3.5 3.4 3.4 3.4
3.4 3.2 3.1 3.0 3.0 3.1 3.3 3.7 4.2 4.3 4.4 4.5 4.4 4.4 4.4 4.6 4.6 4.6 4.6 5.0 4.8 4.4 4.5 4.3 4.0 3.7 3.2 3.3 3.3 3.4 3.3 3.3 3.3 3.3 3.3 3.5 3.4 3.4 3.5 3.5 3.4 3.4 3.3
3.1 3.1 3.1 3.1 3.2 3.6 4.2 4.5 4.4 4.5 4.6 4.6 4.5 4.5 4.5 4.5 4.5 4.6 4.6 4.5 5.0 4.8 4.6 4.7 4.7 4.5 4.6 4.4 4.1 3.9 3.7 3.5 3.3 3.2 3.3 3.2 3.4 3.4 3.4 3.3 3.4 3.5 3.5
Wind_Speed
16 17 16 15 16 14 13 15 17 19 13 12 14 15 14 14 13 14 14 13 12 8 8 11 12 12 8 8 6 4 5 4 5 3 4 6 11 9 9 14 14 19 22
16 16 17 16 16 15 15 16 16 16 16 12 14 13 16 14 13 13 12 11 11 8 6 7 8 6 10 9 8 9 8 7 6 8 6 4 7 13 11 13 9 12 13
16 16 17 18 17 17 17 17 16 15 16 16 12 12 11 14 11 12 12 13 12 11 11 9 9 10 9 7 7 8 7 5 6 5 6 6 3 9 9 8 5 6 10
16 16 16 16 17 16 16 16 15 14 15 15 15 5 7 9 13 14 12 9 9 9 10 12 10 9 7 8 7 8 7 7 8 7 6 6 6 7 8 7 4 3 6
15 14 15 15 16 16 16 16 16 15 14 15 16 14 14 12 7 4 9 11 9 7 5 9 7 9 11 7 1 5 8 8 6 8 6 5 5 4 8 5 5 6 5
14 15 15 15 16 17 16 16 17 16 16 13 16 16 14 11 26 19 6 5 3 4 8 8 6 8 9 12 10 5 4 4 11 9 10 10 11 9 8 11 9 6 4
13 15 16 15 17 15 16 17 17 17 16 16 15 15 17 17 27 25 10 9 9 10 8 5 5 5 6 5 9 10 10 11 6 7 10 12 11 11 13 12 13 10 4
13 14 15 16 15 15 16 16 16 15 16 16 17 16 13 15 26 24 19 12 13 12 11 9 8 6 6 5 6 7 8 10 11 4 2 2 2 11 18 12 13 9 10
14 15 15 14 14 14 15 14 12 14 15 16 16 18 18 17 29 26 14 11 14 14 13 13 9 8 10 7 6 8 7 7 8 16 18 18 19 14 12 12 9 12 3
13 15 14 13 15 15 13 14 11 10 12 11 16 18 25 20 32 27 15 9 12 9 11 13 23 15 15 11 7 7 8 5 6 8 9 13 15 15 16 2 12 12 5
11 12 14 14 14 15 14 13 13 12 13 14 15 14 15 20 22 31 28 12 9 10 10 10 11 23 23 20 17 10 7 5 8 8 8 8 9 10 9 8 8 6 4
6 9 11 14 12 12 15 14 15 14 14 13 14 13 12 14 23 25 27 26 19 11 9 8 12 24 25 22 16 20 17 10 7 8 9 9 9 8 8 10 11 11 12
8 9 9 9 11 12 13 14 12 13 11 12 11 11 11 11 11 22 22 21 18 10 8 16 20 22 22 19 24 21 13 9 8 10 9 8 8 6 7 8 11 20 23
12 11 9 9 8 10 9 9 10 11 10 10 10 10 10 10 10 10 8 8 10 9 9 8 10 12 16 12 11 12 9 8 9 8 9 7 6 7 8 6 7 8 11
11 11 11 9 10 6 8 8 8 10 13 9 10 8 9 10 10 16 14 8 8 9 6 7 8 8 9 8 9 10 7 6 8 7 8 7 7 7 8 6 7 8 8
11 9 9 9 8 9 8 5 15 16 20 21 21 15 8 18 19 18 20 23 17 15 8 8 8 8 9 7 7 7 6 8 7 5 6 5 5 6 6 6 7 7 8
9 10 8 9 8 8 7 7 7 5 16 18 19 20 20 20 22 21 18 18 21 15 9 8 8 7 7 6 6 6 6 6 5 5 5 6 5 5 6 6 6 6 6
7 10 6 5 5 5 5 5 5 5 6 7 15 18 21 16 20 22 19 13 9 11 8 8 7 7 7 7 7 6 4 4 4 5 5 4 3 4 5 6 4 4 6
4 5 6 4 4 5 5 5 5 6 5 6 6 9 13 19 18 19 21 9 8 7 7 7 6 6 6 5 4 3 4 5 4 5 5 5 5 6 6 5 4 5 6
6 7 6 6 6 7 7 6 6 6 6 6 6 6 7 8 7 8 8 9 8 8 8 6 6 6 6 5 5 5 4 4 5 5 5 4 3 3 3 2 2 4 6
6 7 8 6 7 7 6 7 6 6 6 5 4 4 8 7 8 7 7 7 7 8 8 7 7 7 8 7 6 6 5 5 4 4 4 4 4 4 4 4 4 3 3
7 7 7 7 7 8 8 8 7 7 7 6 5 5 7 5 5 6 6 6 6 6 8 8 6 5 5 6 7 5 4 6 7 4 3 3 3 3 3 3 4 2 3
7 8 8 7 7 9 8 8 7 7 7 6 6 4 3 2 2 2 3 4 5 5 10 10 8 6 13 10 12 11 7 5 4 7 6 3 3 2 2 3 3 4 4
7 7 8 7 6 6 6 7 7 8 8 7 7 6 5 4 3 2 2 2 4 7 9 9 9 9 11 14 15 14 14 14 14 12 13 4 3 3 3 5 4 3 5
5 5 5 5 5 5 5 6 6 6 6 6 6 6 6 6 5 5 2 3 2 4 3 3 9 8 7 11 12 11 11 12 12 15 14 8 5 6 5 4 3 5 4
6 6 6 5 5 5 4 3 4 4 5 4 5 5 5 5 5 5 6 2 2 3 1 1 7 3 1 8 7 7 8 10 13 16 16 7 4 4 4 3 5 2 3
Wind_Direction
339 333 335 332 330 326 338 336 335 323 248 220 202 198 199 191 191 198 199 195 197 197 199 205 204 194 191 194 197 184 184 165 208 214 172 165 186 187 185 191 173 180 191
340 341 344 340 340 334 349 342 335 328 332 248 222 197 192 187 183 186 180 182 194 179 232 214 191 211 194 187 191 199 198 193 192 195 185 172 191 195 193 189 184 174 155
346 349 350 351 351 347 350 349 350 347 349 338 268 200 194 178 187 186 197 185 186 191 163 246 189 193 196 183 196 190 187 190 207 216 206 185 167 182 188 182 124 105 90
353 352 353 352 357 352 354 356 355 358 5 357 351 318 182 200 197 189 202 201 208 208 182 186 178 182 185 188 187 194 197 196 203 208 200 189 186 183 178 153 130 118 103
358 355 357 356 2 5 0 4 360 13 16 11 7 24 16 32 5 274 175 200 215 197 80 80 76 87 77 67 101 202 209 213 214 212 205 189 186 182 167 164 125 119 92
0 360 0 5 8 9 4 12 11 14 23 21 32 30 17 18 356 332 206 155 145 140 91 78 78 75 81 79 67 36 17 250 226 225 229 218 200 189 159 154 147 140 136
3 4 8 10 16 10 12 18 19 15 16 25 30 28 27 20 10 4 62 86 76 63 69 86 88 60 56 76 70 62 45 17 340 254 220 216 207 181 159 160 171 159 136
11 10 12 13 15 14 19 21 24 24 26 27 27 26 36 24 23 13 15 74 79 65 55 47 56 51 34 87 99 84 65 46 19 339 59 61 301 180 172 175 155 110 98
18 14 13 12 13 16 19 20 26 32 35 35 33 30 30 28 34 32 27 52 64 64 59 50 46 44 40 93 106 93 75 48 24 47 58 60 48 65 129 124 139 132 118
20 23 14 13 18 18 17 16 16 24 33 39 44 39 34 32 35 31 43 36 60 57 54 55 51 51 52 57 80 94 78 37 25 24 26 31 38 50 42 73 160 158 131
29 32 25 19 25 22 21 19 20 25 33 35 36 34 39 40 37 42 40 45 48 55 44 54 53 56 60 61 68 70 78 73 55 54 48 38 39 36 37 43 45 139 135
29 35 38 32 29 29 27 24 20 26 27 27 30 33 29 24 34 43 47 51 47 57 51 44 61 61 65 63 63 65 68 69 61 62 58 48 46 43 41 52 60 67 64
34 35 37 45 36 34 34 29 26 25 26 29 27 28 26 21 21 21 27 32 41 58 57 60 62 61 60 59 59 56 51 60 65 66 61 59 51 45 51 59 64 75 69
33 18 31 36 56 37 36 39 35 31 28 25 34 28 24 25 22 15 14 16 27 37 40 44 45 53 56 55 61 57 48 52 65 71 70 56 48 45 49 43 66 69 76
29 31 19 22 23 73 61 44 52 49 48 35 27 30 26 26 19 25 26 19 24 24 36 40 43 44 48 43 50 48 38 57 65 58 69 67 64 54 51 43 52 66 79
18 23 23 19 21 22 23 71 62 64 60 55 45 43 27 29 23 26 33 33 36 38 43 40 41 39 42 42 46 53 40 39 49 42 60 65 62 73 71 67 64 64 74
18 12 20 20 16 17 22 25 22 84 73 56 43 35 33 29 26 26 37 42 42 42 43 42 40 43 42 37 41 44 35 40 40 59 64 68 69 66 71 72 70 76 82
14 4 11 18 7 9 11 16 20 22 23 34 29 15 10 25 34 26 27 35 41 42 48 42 35 33 36 37 30 27 43 45 43 51 57 53 76 87 95 96 101 109 112
35 11 352 6 8 9 10 14 19 19 22 42 30 14 1 357 34 38 26 24 31 33 40 42 36 30 33 39 35 25 29 33 29 44 47 54 63 67 59 57 62 72 100
15 23 357 14 21 23 4 12 19 17 17 42 36 14 1 356 23 31 34 22 22 25 19 33 37 36 27 20 22 9 25 31 32 34 37 28 38 75 95 98 69 72 77
14 7 0 21 14 15 1 10 20 16 19 22 64 356 3 15 14 31 37 25 18 20 15 20 28 29 16 15 22 17 24 24 21 31 27 32 22 46 52 51 56 56 78
14 9 4 19 18 4 7 9 10 10 13 12 13 17 32 27 18 23 28 24 23 23 17 6 26 35 31 18 11 5 23 27 19 17 12 13 30 38 47 62 71 59 74
16 10 5 18 17 2 10 3 359 6 3 1 3 9 22 27 30 27 40 29 17 23 26 20 30 16 14 10 40 33 28 20 8 8 348 352 41 23 73 59 51 73 66
17 9 8 7 9 6 4 356 359 1 0 357 356 4 7 9 2 50 91 67 41 18 33 21 65 45 29 28 38 39 24 8 3 4 353 357 17 36 56 73 70 70 91
1 4 359 355 355 354 353 355 352 356 352 352 356 354 351 358 359 1 73 115 88 38 59 28 44 80 62 75 64 46 27 18 9 3 353 43 28 45 23 48 74 68 47
351 354 343 342 339 334 334 340 336 341 342 351 337 341 355 356 354 3 4 353 44 7 349 355 129 104 335 122 104 82 43 21 13 8 356 359 19 46 18 81 39 73 110